Weather Roundup
Issued by NWS

Home | Current Version | Previous Version | Text Only | Print | Product List | Glossary On
Versions: 1 2 3 4 5 6 7 8 9 10 11 12 13 14 15 16 17 18 19 20 21 22 23 24 25 26 27 28 29 30 31 32 33 34 35 36 37 38 39 40 41 42 43 44 45 46 47 48 49 50
000
NZUS93 KARX 182310
HRRWXR

CURRENT HOURLY OBSERVATIONS ACROSS
MUCH OF THE UPPER MISSISSIPPI VALLEY
NATIONAL WEATHER SERVICE LA CROSSE WI
600 PM CDT THU SEP 18 2014


...SOUTHEAST MINNESOTA...


CITY           SKY/WX    TMP DP  RH WIND       PRES   REMARKS
ROCHESTER      SUNNY     70  52  52 S9        30.04F
ROCHESTER/MAYO FAIR      71  49  46 SE8       30.03S
WINONA         SUNNY     68  59  73 SE9       30.05S
AUSTIN         SUNNY     70  52  52 S7        30.02S
ALBERT LEA     SUNNY     72  52  49 S7        30.01S
DODGE CENTER   SUNNY     70  54  56 S9        30.02F
PRESTON        SUNNY     68  58  71 SE8       30.04F
OWATONNA       SUNNY     72  52  49 SE7       30.00F
FARIBAULT      SUNNY     75  46  35 S7        30.00S
$$

...ELSEWHERE IN MINNESOTA...


CITY           SKY/WX    TMP DP  RH WIND       PRES   REMARKS
MINNEAPOLIS    MOSUNNY   73  51  46 S12       29.98F
INTNL FALLS    SUNNY     61  50  67 SE12      29.92F
DULUTH         CLOUDY    47  42  83 E9        30.05F
RED WING       SUNNY     72  55  56 SE12      30.01S
REDWOOD FALLS  SUNNY     75  50  41 S14       29.94F
MANKATO        SUNNY     73  48  40 S10       29.98S
WORTHINGTON    SUNNY     72  48  43 S12       29.97S
FAIRMONT       SUNNY     72  43  35 S12G17    29.98F
$$

...SOUTHWEST WISCONSIN...


CITY           SKY/WX    TMP DP  RH WIND       PRES   REMARKS
LA CROSSE      MOSUNNY   69  55  60 SE7       30.05F
PRAIRIE DU CHI SUNNY     70  52  53 E6        30.06S
BOSCOBEL       SUNNY     69  57  65 NE6       30.08S
LONE ROCK      SUNNY     68  55  63 E8        30.10S
PLATTEVILLE    SUNNY     67  53  61 CALM      30.10R
FORT MC COY    SUNNY     64  52  65 SE7       30.10S
CAMP DOUGLAS   SUNNY     62  55  78 SE6       30.11R
VIROQUA        FAIR      65  55  70 E6        30.09S
WIS DELLS      SUNNY     62  51  65 SE5       30.11S
$$

...ELSEWHERE IN WISCONSIN...


CITY           SKY/WX    TMP DP  RH WIND       PRES   REMARKS
MILWAUKEE      MOCLDY    57  51  80 NE7       30.15S
MADISON        PTSUNNY   64  53  67 E6        30.11F
GREEN BAY      MOCLDY    57  48  72 NE3       30.15S
EAU CLAIRE     NOT AVBL
BLACK RVR FLS  FAIR      64  53  68 SE3       30.08F
MEDFORD        SUNNY     55  49  81 SE5       30.10F
WAUSAU         SUNNY     57  48  72 S6        30.11F
WIS RAPIDS     SUNNY     61  50  67 E6        30.13S
MARSHFIELD     SUNNY     57  49  74 SE8       30.11S
RICE LAKE      SUNNY     61  52  71 SE10      30.07F
$$

...NORTHEAST IOWA...


CITY           SKY/WX    TMP DP  RH WIND       PRES   REMARKS
WATERLOO       SUNNY     71  52  50 S12       30.03F
DUBUQUE        SUNNY     68  52  56 E8        30.09S
DECORAH        SUNNY     68  55  64 VRB7      30.05S
MASON CITY     SUNNY     70  52  52 S15       30.03S
CHARLES CITY   SUNNY     70  52  52 S8        30.04S
OELWEIN        PTSUNNY   72  54  53 SE9       30.05F
$$

...ELSEWHERE IN IOWA...


CITY           SKY/WX    TMP DP  RH WIND       PRES   REMARKS
DES MOINES     MOSUNNY   72  51  47 SE10      30.01F
IOWA CITY      SUNNY     72  54  53 E8        30.06R
FORT DODGE     SUNNY     70  48  46 S10       30.01S
MARSHALLTOWN   SUNNY     71  53  52 SE10      30.02F
CEDAR RAPIDS   SUNNY     70  54  56 SE7       30.05S
$$

...NORTHERN ILLINOIS...


CITY           SKY/WX    TMP DP  RH WIND       PRES   REMARKS
CHICAGO-OHARE  PTCLDY    66  54  65 NE10      30.12S
DUPAGE         CLEAR     66  54  65 NE10      30.11R
CHICAGO-MIDWAY PTCLDY    66  55  67 NE9       30.11S
MOLINE         SUNNY     71  53  52 E10       30.05F
ROCKFORD       MOSUNNY   68  52  56 E9        30.11S
STERLING       SUNNY     70  50  49 SE7       30.08S
PEORIA         SUNNY     72  49  44 E5        30.06S
$$

NOTE: "FAIR" INDICATES FEW OR NO CLOUDS BELOW 12,000 FEET WITH NO
SIGNIFICANT WEATHER AND/OR OBSTRUCTIONS TO VISIBILITY. WIND
SPEEDS ARE IN MILES-PER-HOUR.



USA.gov is the U.S. government's official web portal to all federal, state and local government web resources and services.